Location: Warwick
(41.7000°N, 71.4170°W)
Time: 17:24:41
(UTC-04:00)

BREEZE-M DEB (TANK) - Visible Passes

Search period start: 24 April 2014 00:00
Search period end: 04 May 2014 00:00
Orbit: 290 x 16110 km, 49.5° (Epoch: 24 April)

Date Brightness Start Highest point End Pass type
(mag) Time Alt. Az. Time Alt. Az. Time Alt. Az.
26 Apr 5.0 20:10:39 10° WNW 20:16:26 19° WSW 20:19:16 10° SSW visible
27 Apr 5.5 20:34:12 10° W 20:35:59 11° W 20:37:23 10° WSW visible
01 May 10.4 05:33:12 10° ESE 06:10:17 14° E 06:34:28 10° ENE visible
02 May 9.9 05:29:44 10° ESE 06:30:07 20° E 07:02:16 10° ENE visible
03 May 9.6 05:31:52 10° SE 06:50:21 25° E 07:26:39 10° ENE visible
